Regional Weather Roundup
Issued by NWS Glasgow, MT

Home | Current Version | Previous Version | Text Only | Print | Product List | Glossary On
Versions: 1 2 3 4 5 6 7 8 9 10 11 12 13 14 15 16 17 18 19 20 21 22 23 24 25 26 27
000
ASUS45 KGGW 222115
RWRGGW
HOURLY REGIONAL WEATHER ROUNDUP FOR NORTHEAST MONTANA
NATIONAL WEATHER SERVICE GLASGOW MONTANA
300 PM MDT THU JUN 22 2017

NOTE: "FAIR" INDICATES FEW OR NO CLOUDS BELOW 12,000 FEET WITH NO
SIGNIFICANT WEATHER AND/OR OBSTRUCTIONS TO VISISBILITY.

NORTHEAST MONTANA


CITY           SKY/WX    TMP DP  RH WIND       PRES   REMARKS
GLASGOW        CLOUDY    64  35  34 NW35G54   29.95R
PLENTYWOOD       N/A     54  41  61 NW36G52     N/A
WOLF POINT     CLOUDY    71  33  24 NW35G49   29.90R
JORDAN           N/A     73  24  16 NW28G40   29.97R
WINNETT          N/A     71  22  15 W21G36      N/A
SIDNEY         CLOUDY    73  32  22 NW31G38   29.86S
GLENDIVE       PTSUNNY   71  28  20 NW23G38   29.91F
MALTA            N/A     59  42  53 NW25G38     N/A

FORT PECK REPORTS


CITY           SKY/WX    TMP DP  RH WIND       PRES   REMARKS
FORT PECK        N/A     67  36  31 W35G53      N/A
THE PINES        N/A     68  30  24 CALM        N/A

SOUTHEAST MONTANA


CITY           SKY/WX    TMP DP  RH WIND       PRES   REMARKS
BILLINGS       MOSUNNY   75  26  16 N18G32    30.02R
MILES CITY     CLOUDY    76  33  21 W21       29.94F
BAKER          PTSUNNY   70  29  21 NW17G31   29.94S
LIVINGSTON     CLOUDY    68  29  23 W15G24    30.08R

CENTRAL MONTANA


CITY           SKY/WX    TMP DP  RH WIND       PRES   REMARKS
HAVRE          CLOUDY    54  40  59 NW23G33   30.15R
LEWISTOWN      MOSUNNY   64  28  25 NW25G37   30.11R
GREAT FALLS    MOSUNNY   66  30  26 N20G26    30.15R
CUT BANK       PTSUNNY   57  35  43 N18       30.20R
HELENA         CLOUDY    68  27  21 N14G22    30.12R
BUTTE          SUNNY     66  22  18 N15G28    30.15S
BOZEMAN        MOSUNNY   72  28  19 VRB7G21   30.10R

WESTERN MONTANA


CITY           SKY/WX    TMP DP  RH WIND       PRES   REMARKS
MISSOULA       FAIR      71  33  24 N18G26    30.14R
KALISPELL      NOT AVBL

NORTH DAKOTA


CITY           SKY/WX    TMP DP  RH WIND       PRES   REMARKS
WILLISTON      CLOUDY    69  34  27 NW25G40   29.84R
DICKINSON      CLOUDY    71  28  20 W22G37    29.87S
MINOT          CLOUDY    72  32  23 W28G43    29.75R
BISMARCK       MOSUNNY   77  32  19 W21G31    29.82R

SOUTHERN SASKATCHEWAN


CITY           SKY/WX    TMP DP  RH WIND       PRES   REMARKS
REGINA         LGT RAIN  57  54  88 W24       29.75S
MOOSE JAW      CLOUDY    57  54  88 NW22G30   29.81R
ESTEVAN        LGT RAIN  54  48  82 W26G37    29.79R
SWIFT CURRENT  CLOUDY    48  46  93 NW28G41   29.95R





USA.gov is the U.S. government's official web portal to all federal, state and local government web resources and services.